map of INH home
INH - Airport
Location
City:  Inhambane, Inhambane, Mozambique
Name:Inhambane Airport
ICAO:FQIN
IATA:INH

Details
Type:Airport (Aerodrome, Airfield)
Use:Public/Civil
Latitude:2352'35"S (-23.876430)
Longitude:3524'31"E (35.408544)
Datum:WGS 1984
Elevation:30 ft (9 m)
Variation:18.33W (WMM2015v2 magnetic declination)
-0.11 annual change
Runways:2
Longest:4921 × 98 ft (1500 × 30 m), paved

Time
Time Zone:UTC+2
Local Time:

Weather
METAR:FQIN 041300Z 14011KT 9999 FEW020 30/23 Q1011
TAF:FQIN 041000Z 0412/0512 03010KT 9999 BKN020 TX31/0413Z TN25/0503Z
BECMG 0418/0420 11012KT SCT015
BECMG 0500/0502 16010KT
BECMG 0506/0508 01007KT

Related Locations
Nearby:
Farthest:ITO: 11715 mi / 18854 km
Hilo [Hilo Intl], Hawaii, HI, US

Find:

   beyond  
but within

Other Information
Maps:
NOTAMs:
Links:
Sources:

  
  • flag of Mozambique
  

Sectional Chart

Flight Planning
at skyvector.com

Satellite Image

Google Maps Satellite view

 

Copyright © 2004-2019 Karl L. Swartz. All rights reserved.
The Great Circle Mapper name and logo are trademarks of the Great Circle Mapper.
All other trademarks mentioned herein belong to their respective owners.
Please see credits for attibutions and further copyright information.

  Follow gcmap on Facebook Follow gcmap on Twitter GCmap on LinkedIn

hCard Microformat

Geo Microformat